User: anonymous   Login
Location: Unspecified
(0.0000°N, 0.0000°E)
Time: 16:10:35
(UTC+02:00)
Language:

Iridium 15 - Orbit

View from above orbital plane
View from above orbital plane
View from above satellite
View from above satellite

Ground track
Ground track

The orbit data is extracted from the following two-line orbital elements,

1 24869U 97034A   16151.57164752  .00000014  00000-0 -19416-5 0  9995
2 24869  86.3979 181.7564 0002280  87.6974  21.8720 14.34218828989072
Epoch (UTC): 30 May 2016 13:43:10
Eccentricity: 0.0002280
inclination: 86.3979°
perigee height: 776 km
apogee height: 779 km
right ascension of ascending node: 181.7564°
argument of perigee: 87.6974°
revolutions per day: 14.34218828
mean anomaly at epoch: 21.8720°
orbit number at epoch: 98907

The dashed part of the orbit path shows where the satellite is in the earth's shadow,  

DLR